time, Switch, Flow(0), Analog(2)
yyyy/mm/dd HH:MM:SS.fff, True=FILTERED|False=TOTAL, L/min, V
2023/06/26 09:00:02.128, True, 4.311, 0.125658
2023/06/26 09:00:02.632, True, 4.315, 0.124056
2023/06/26 09:00:03.128, True, 4.376, 0.124743
2023/06/26 09:00:03.632, True, 3.648, 0.125811
2023/06/26 09:00:04.136, True, 2.652, 0.125582
2023/06/26 09:00:04.632, True, 2.021, 0.124895
2023/06/26 09:00:05.136, True, 1.992, 0.124666
2023/06/26 09:00:05.640, True, 1.987, 0.129778
2023/06/26 09:00:06.136, True, 1.687, 0.127337
2023/06/26 09:00:06.640, True, 1.987, 0.128252
2023/06/26 09:00:07.144, True, 1.660, 0.125887
2023/06/26 09:00:07.640, True, 2.020, 0.124208
2023/06/26 09:00:08.144, True, 1.657, 0.124590
2023/06/26 09:00:08.648, True, 1.990, 0.124971
2023/06/26 09:00:09.144, True, 2.021, 0.125200
2023/06/26 09:00:09.648, True, 1.990, 0.125429
2023/06/26 09:00:10.152, True, 1.989, 0.124132
2023/06/26 09:00:10.648, True, 2.025, 0.123674
2023/06/26 09:00:11.152, True, 1.986, 0.124743
2023/06/26 09:00:11.656, True, 1.990, 0.128099
2023/06/26 09:00:12.152, True, 1.685, 0.125734
2023/06/26 09:00:12.656, True, 1.989, 0.127794
2023/06/26 09:00:13.160, True, 1.991, 0.126268
2023/06/26 09:00:13.656, True, 1.685, 0.124590
2023/06/26 09:00:14.160, True, 1.989, 0.123674
2023/06/26 09:00:14.664, True, 1.659, 0.125887
2023/06/26 09:00:15.160, True, 2.022, 0.126574
2023/06/26 09:00:15.664, True, 1.990, 0.126726
2023/06/26 09:00:16.168, True, 1.658, 0.124666
2023/06/26 09:00:16.672, True, 1.991, 0.125963
2023/06/26 09:00:17.168, True, 2.022, 0.126879
2023/06/26 09:00:17.672, True, 1.987, 0.127108
2023/06/26 09:00:18.168, True, 1.686, 0.127031
2023/06/26 09:00:18.672, True, 1.991, 0.124361
2023/06/26 09:00:19.176, True, 1.987, 0.123903
2023/06/26 09:00:19.672, True, 2.022, 0.124743
2023/06/26 09:00:20.176, True, 1.661, 0.123980
2023/06/26 09:00:20.680, True, 1.990, 0.126497
2023/06/26 09:00:21.176, True, 1.681, 0.127642
2023/06/26 09:00:21.680, True, 1.990, 0.126421
2023/06/26 09:00:22.184, True, 1.991, 0.124819
2023/06/26 09:00:22.680, True, 2.024, 0.125811
2023/06/26 09:00:23.184, True, 1.655, 0.125582
2023/06/26 09:00:23.688, True, 1.990, 0.124971
2023/06/26 09:00:24.184, True, 1.688, 0.124819
2023/06/26 09:00:24.688, True, 1.989, 0.126497
2023/06/26 09:00:25.192, True, 1.658, 0.127108
2023/06/26 09:00:25.688, True, 2.018, 0.126345
2023/06/26 09:00:26.192, True, 1.989, 0.125429
2023/06/26 09:00:26.688, True, 1.685, 0.125887
2023/06/26 09:00:27.192, True, 1.990, 0.126497
2023/06/26 09:00:27.696, True, 1.990, 0.122988
2023/06/26 09:00:28.192, True, 1.685, 0.124514
2023/06/26 09:00:28.696, True, 1.990, 0.126345
2023/06/26 09:00:29.200, True, 1.990, 0.124437
2023/06/26 09:00:29.704, True, 1.659, 0.125048
2023/06/26 09:00:30.200, True, 2.021, 0.126421
2023/06/26 09:00:30.704, True, 1.989, 0.126955
2023/06/26 09:00:31.200, True, 2.022, 0.127642
2023/06/26 09:00:31.704, True, 1.658, 0.124819
2023/06/26 09:00:32.208, True, 1.990, 0.125811
2023/06/26 09:00:32.704, True, 2.022, 0.125582
2023/06/26 09:00:33.208, True, 1.990, 0.125353
2023/06/26 09:00:33.712, True, 1.658, 0.126497
2023/06/26 09:00:34.208, True, 2.022, 0.126421
2023/06/26 09:00:34.712, True, 1.658, 0.127260
2023/06/26 09:00:35.216, True, 1.990, 0.128634
2023/06/26 09:00:35.712, True, 1.685, 0.125963
2023/06/26 09:00:36.216, True, 1.990, 0.127489
2023/06/26 09:00:36.720, True, 1.989, 0.124666
2023/06/26 09:00:37.224, True, 1.990, 0.126955
2023/06/26 09:00:37.720, True, 1.684, 0.129778
2023/06/26 09:00:38.224, True, 1.658, 0.128252
2023/06/26 09:00:38.720, True, 2.022, 0.127871
2023/06/26 09:00:39.224, True, 1.659, 0.128634
2023/06/26 09:00:39.728, True, 1.658, 0.129854
2023/06/26 09:00:40.224, True, 1.685, 0.128710
2023/06/26 09:00:40.728, True, 1.989, 0.129168
2023/06/26 09:00:41.232, True, 1.658, 0.130922
2023/06/26 09:00:41.728, True, 1.685, 0.131075
2023/06/26 09:00:42.232, True, 1.990, 0.130999
2023/06/26 09:00:42.736, True, 1.658, 0.131533
2023/06/26 09:00:43.232, True, 2.021, 0.132982
2023/06/26 09:00:43.736, True, 1.658, 0.132830
2023/06/26 09:00:44.240, True, 1.990, 0.133364
2023/06/26 09:00:44.736, True, 1.685, 0.132906
2023/06/26 09:00:45.240, True, 1.990, 0.133288
2023/06/26 09:00:45.744, True, 1.990, 0.133898
2023/06/26 09:00:46.240, True, 1.685, 0.135500
2023/06/26 09:00:46.744, True, 1.990, 0.133059
2023/06/26 09:00:47.248, True, 1.990, 0.137407
2023/06/26 09:00:47.744, True, 2.022, 0.132677
2023/06/26 09:00:48.248, True, 1.658, 0.133135
2023/06/26 09:00:48.752, True, 1.658, 0.133898
2023/06/26 09:00:49.248, True, 2.022, 0.135805
2023/06/26 09:00:49.752, True, 1.659, 0.134432
2023/06/26 09:00:50.256, True, 1.988, 0.135042
2023/06/26 09:00:50.752, True, 1.685, 0.135042
2023/06/26 09:00:51.256, True, 1.658, 0.135424
2023/06/26 09:00:51.760, True, 1.990, 0.134737
2023/06/26 09:00:52.264, True, 1.658, 0.135500
2023/06/26 09:00:52.760, True, 1.685, 0.135119
2023/06/26 09:00:53.264, True, 1.990, 0.133669
2023/06/26 09:00:53.768, True, 1.989, 0.133440
2023/06/26 09:00:54.264, True, 1.685, 0.135195
2023/06/26 09:00:54.768, True, 1.990, 0.135348
2023/06/26 09:00:55.272, True, 1.990, 0.135729
2023/06/26 09:00:55.768, True, 1.685, 0.137331
2023/06/26 09:00:56.272, True, 1.989, 0.135500
2023/06/26 09:00:56.768, True, 1.685, 0.135042
2023/06/26 09:00:57.271, True, 1.990, 0.136263
2023/06/26 09:00:57.776, True, 1.658, 0.135500
2023/06/26 09:00:58.272, True, 2.022, 0.136492
2023/06/26 09:00:58.776, True, 1.658, 0.136645
2023/06/26 09:00:59.280, True, 1.990, 0.134737
2023/06/26 09:00:59.776, True, 1.685, 0.135271
2023/06/26 09:01:00.280, True, 1.990, 0.136950
2023/06/26 09:01:00.784, True, 1.990, 0.135424
2023/06/26 09:01:01.280, True, 1.685, 0.135882
2023/06/26 09:01:01.784, True, 1.990, 0.137560
2023/06/26 09:01:02.288, True, 1.990, 0.135576
2023/06/26 09:01:02.784, True, 1.685, 0.137865
2023/06/26 09:01:03.288, True, 1.989, 0.137484
2023/06/26 09:01:03.784, True, 1.685, 0.134966
2023/06/26 09:01:04.288, True, 1.658, 0.135653
2023/06/26 09:01:04.792, True, 1.658, 0.134661
2023/06/26 09:01:05.296, True, 1.989, 0.138476
2023/06/26 09:01:05.792, True, 1.685, 0.134661
2023/06/26 09:01:06.296, True, 1.990, 0.139162
2023/06/26 09:01:06.792, True, 2.022, 0.136339
2023/06/26 09:01:07.296, True, 1.658, 0.135882
2023/06/26 09:01:07.800, True, 1.658, 0.134813
2023/06/26 09:01:08.304, True, 1.990, 0.136187
2023/06/26 09:01:08.800, True, 1.685, 0.138476
2023/06/26 09:01:09.304, True, 1.658, 0.136797
2023/06/26 09:01:09.808, True, 1.990, 0.136645
2023/06/26 09:01:10.304, True, 1.685, 0.136034
2023/06/26 09:01:10.808, True, 1.990, 0.136110
2023/06/26 09:01:11.304, True, 1.685, 0.134966
2023/06/26 09:01:11.808, True, 1.990, 0.135882
2023/06/26 09:01:12.312, True, 1.989, 0.138170
2023/06/26 09:01:12.816, True, 1.990, 0.137636
2023/06/26 09:01:13.312, True, 1.685, 0.137026
2023/06/26 09:01:13.816, True, 1.989, 0.134737
2023/06/26 09:01:14.312, True, 2.022, 0.136797
2023/06/26 09:01:14.816, True, 1.658, 0.135882
2023/06/26 09:01:15.320, True, 1.990, 0.136492
2023/06/26 09:01:15.816, True, 1.685, 0.138094
2023/06/26 09:01:16.320, True, 1.990, 0.136034
2023/06/26 09:01:16.824, True, 1.658, 0.137102
2023/06/26 09:01:17.320, True, 2.024, 0.135576
2023/06/26 09:01:17.824, True, 1.656, 0.137865
2023/06/26 09:01:18.320, True, 1.685, 0.136187
2023/06/26 09:01:18.824, True, 1.990, 0.136034
2023/06/26 09:01:19.328, True, 1.990, 0.135958
2023/06/26 09:01:19.832, True, 1.659, 0.135119
2023/06/26 09:01:20.328, True, 1.684, 0.135424
2023/06/26 09:01:20.832, True, 1.990, 0.135271
2023/06/26 09:01:21.328, True, 2.021, 0.135576
2023/06/26 09:01:21.832, True, 1.658, 0.136339
2023/06/26 09:01:22.336, True, 1.990, 0.136110
2023/06/26 09:01:22.832, True, 1.685, 0.135195
2023/06/26 09:01:23.336, True, 1.989, 0.133059
2023/06/26 09:01:23.840, True, 1.658, 0.138247
2023/06/26 09:01:24.336, True, 2.022, 0.135348
2023/06/26 09:01:24.840, True, 1.989, 0.136950
2023/06/26 09:01:25.344, True, 1.658, 0.136797
2023/06/26 09:01:25.840, True, 2.022, 0.133974
2023/06/26 09:01:26.344, True, 1.990, 0.138094
2023/06/26 09:01:26.848, True, 1.658, 0.134051
2023/06/26 09:01:27.344, True, 2.021, 0.134127
2023/06/26 09:01:27.848, True, 1.990, 0.135348
2023/06/26 09:01:28.352, True, 1.989, 0.136339
2023/06/26 09:01:28.848, True, 1.685, 0.136950
2023/06/26 09:01:29.352, True, 1.990, 0.135882
2023/06/26 09:01:29.856, True, 1.990, 0.135500
2023/06/26 09:01:30.352, True, 1.687, 0.136034
2023/06/26 09:01:30.856, True, 1.987, 0.136645
2023/06/26 09:01:31.360, True, 1.990, 0.134661
2023/06/26 09:01:31.864, True, 1.660, 0.136416
2023/06/26 09:01:32.360, True, 2.019, 0.135958
2023/06/26 09:01:32.864, True, 1.992, 0.136263
2023/06/26 09:01:33.368, True, 1.988, 0.136263
2023/06/26 09:01:33.872, True, 1.989, 0.135348
2023/06/26 09:01:34.368, True, 1.685, 0.137102
2023/06/26 09:01:34.872, True, 1.990, 0.134127
2023/06/26 09:01:35.376, True, 1.658, 0.135271
2023/06/26 09:01:35.872, True, 2.022, 0.136263
2023/06/26 09:01:36.376, True, 1.659, 0.135500
2023/06/26 09:01:36.880, True, 1.990, 0.133516
2023/06/26 09:01:37.376, True, 2.020, 0.137331
2023/06/26 09:01:37.880, True, 1.658, 0.134890
2023/06/26 09:01:38.384, True, 1.989, 0.134508
2023/06/26 09:01:38.880, True, 2.022, 0.134966
2023/06/26 09:01:39.383, True, 1.658, 0.135805
2023/06/26 09:01:39.888, True, 1.990, 0.135576
2023/06/26 09:01:40.384, True, 2.022, 0.135042
2023/06/26 09:01:40.888, True, 1.658, 0.133974
2023/06/26 09:01:41.384, True, 2.022, 0.135500
2023/06/26 09:01:41.888, True, 1.990, 0.136873
2023/06/26 09:01:42.392, True, 1.990, 0.135500
2023/06/26 09:01:42.888, True, 1.685, 0.136110
2023/06/26 09:01:43.391, True, 1.989, 0.136110
2023/06/26 09:01:43.895, True, 1.990, 0.136568
2023/06/26 09:01:44.392, True, 1.685, 0.135576
2023/06/26 09:01:44.896, True, 1.990, 0.136492
2023/06/26 09:01:45.391, True, 2.022, 0.134737
2023/06/26 09:01:45.895, True, 1.992, 0.137102
2023/06/26 09:01:46.400, True, 1.657, 0.134203
2023/06/26 09:01:46.903, True, 1.989, 0.136797
2023/06/26 09:01:47.399, True, 2.022, 0.135348
2023/06/26 09:01:47.904, True, 1.658, 0.134966
2023/06/26 09:01:48.408, True, 1.993, 0.135653
2023/06/26 09:01:48.904, True, 1.682, 0.134356
2023/06/26 09:01:49.408, True, 1.990, 0.135424
2023/06/26 09:01:49.912, True, 1.994, 0.133974
2023/06/26 09:01:50.408, True, 1.682, 0.134585
2023/06/26 09:01:50.912, True, 1.657, 0.132830
2023/06/26 09:01:51.408, True, 1.688, 0.135195
2023/06/26 09:01:51.912, True, 1.987, 0.134432
2023/06/26 09:01:52.416, True, 1.658, 0.134051
2023/06/26 09:01:52.920, True, 1.990, 0.137026
2023/06/26 09:01:53.416, True, 2.022, 0.136721
2023/06/26 09:01:53.920, True, 1.989, 0.134508
2023/06/26 09:01:54.416, True, 1.684, 0.135195
2023/06/26 09:01:54.920, True, 1.990, 0.134203
2023/06/26 09:01:55.424, True, 1.660, 0.134737
2023/06/26 09:01:55.928, True, 1.987, 0.134432
2023/06/26 09:01:56.424, True, 1.685, 0.135271
2023/06/26 09:01:56.928, True, 1.991, 0.134661
2023/06/26 09:01:57.432, True, 1.988, 0.134737
2023/06/26 09:01:57.936, True, 1.658, 0.136263
2023/06/26 09:01:58.432, True, 2.022, 0.134432
2023/06/26 09:01:58.936, True, 1.990, 0.134127
2023/06/26 09:01:59.432, True, 1.685, 0.133974
2023/06/26 09:01:59.936, True, 1.990, 0.132982
2023/06/26 09:02:00.440, True, 1.989, 0.133135
2023/06/26 09:02:00.936, True, 1.687, 0.133211
2023/06/26 09:02:01.440, True, 1.990, 0.135805
2023/06/26 09:02:01.944, True, 1.656, 0.135119
2023/06/26 09:02:02.440, True, 2.021, 0.133516
2023/06/26 09:02:02.944, True, 1.660, 0.133898
2023/06/26 09:02:03.447, True, 1.990, 0.133440
2023/06/26 09:02:03.943, True, 1.685, 0.133593
2023/06/26 09:02:04.447, True, 1.987, 0.133593
2023/06/26 09:02:04.952, True, 1.993, 0.134203
2023/06/26 09:02:05.456, True, 1.658, 0.133822
2023/06/26 09:02:05.952, True, 1.682, 0.133822
2023/06/26 09:02:06.456, True, 1.990, 0.133898
2023/06/26 09:02:06.952, True, 2.022, 0.132372
2023/06/26 09:02:07.456, True, 1.661, 0.134508
2023/06/26 09:02:07.960, True, 1.655, 0.134813
2023/06/26 09:02:08.464, True, 1.990, 0.134432
2023/06/26 09:02:08.960, True, 1.685, 0.134279
2023/06/26 09:02:09.464, True, 1.989, 0.132753
2023/06/26 09:02:09.968, True, 1.990, 0.132982
2023/06/26 09:02:10.464, True, 1.685, 0.133059
2023/06/26 09:02:10.968, True, 1.990, 0.133059
2023/06/26 09:02:11.472, True, 1.990, 0.131914
2023/06/26 09:02:11.968, True, 1.685, 0.135500
2023/06/26 09:02:12.472, True, 1.990, 0.134203
2023/06/26 09:02:12.968, True, 2.021, 0.134356
2023/06/26 09:02:13.472, True, 1.989, 0.134356
2023/06/26 09:02:13.976, True, 1.658, 0.133288
2023/06/26 09:02:14.472, True, 2.022, 0.133059
2023/06/26 09:02:14.976, True, 1.990, 0.131838
2023/06/26 09:02:15.480, True, 1.658, 0.132677
2023/06/26 09:02:15.975, True, 2.022, 0.133516
2023/06/26 09:02:16.480, True, 1.990, 0.134508
2023/06/26 09:02:16.984, True, 1.990, 0.131991
2023/06/26 09:02:17.480, True, 1.685, 0.130846
2023/06/26 09:02:17.984, True, 1.990, 0.133516
2023/06/26 09:02:18.488, True, 1.990, 0.129549
2023/06/26 09:02:18.984, True, 1.685, 0.130846
2023/06/26 09:02:19.488, True, 1.990, 0.132753
2023/06/26 09:02:19.992, True, 1.658, 0.135042
2023/06/26 09:02:20.487, True, 2.023, 0.132753
2023/06/26 09:02:20.991, True, 1.657, 0.133135
2023/06/26 09:02:21.496, True, 1.990, 0.133135
2023/06/26 09:02:21.992, True, 1.685, 0.132372
2023/06/26 09:02:22.496, True, 1.990, 0.135805
2023/06/26 09:02:22.000, True, 1.990, 0.132296
2023/06/26 09:02:23.495, True, 1.685, 0.135348
2023/06/26 09:02:23.000, True, 1.659, 0.135119
2023/06/26 09:02:24.504, True, 1.989, 0.134356
2023/06/26 09:02:24.000, True, 1.685, 0.133059
2023/06/26 09:02:25.504, True, 1.990, 0.131609
2023/06/26 09:02:25.000, True, 1.685, 0.132219
2023/06/26 09:02:26.503, True, 1.989, 0.132525
2023/06/26 09:02:27.007, True, 1.660, 0.131762
2023/06/26 09:02:27.504, True, 2.020, 0.132601
2023/06/26 09:02:28.008, True, 1.657, 0.132448
2023/06/26 09:02:28.512, True, 1.659, 0.133135
2023/06/26 09:02:29.008, True, 2.022, 0.133364
2023/06/26 09:02:29.512, True, 1.657, 0.133745
2023/06/26 09:02:30.016, True, 1.658, 0.135348
2023/06/26 09:02:30.512, True, 2.021, 0.132372
2023/06/26 09:02:31.015, True, 1.658, 0.131151
2023/06/26 09:02:31.520, True, 1.989, 0.132677
2023/06/26 09:02:32.015, True, 2.022, 0.132677
2023/06/26 09:02:32.519, True, 1.658, 0.131838
2023/06/26 09:02:33.023, True, 1.990, 0.131151
2023/06/26 09:02:33.520, True, 1.685, 0.131228
2023/06/26 09:02:34.024, True, 1.990, 0.131380
2023/06/26 09:02:34.528, True, 1.658, 0.131762
2023/06/26 09:02:35.023, True, 2.025, 0.132753
2023/06/26 09:02:35.527, True, 1.655, 0.132219
2023/06/26 09:02:36.032, True, 1.990, 0.131228
2023/06/26 09:02:36.528, True, 1.684, 0.132525
2023/06/26 09:02:37.032, True, 1.990, 0.132906
2023/06/26 09:02:37.536, True, 1.990, 0.132601
2023/06/26 09:02:38.039, True, 1.660, 0.132753
2023/06/26 09:02:38.536, True, 2.020, 0.131762
2023/06/26 09:02:39.040, True, 1.992, 0.132677
2023/06/26 09:02:39.543, True, 1.987, 0.132906
2023/06/26 09:02:40.040, True, 1.685, 0.131914
2023/06/26 09:02:40.544, True, 1.990, 0.132525
2023/06/26 09:02:41.048, True, 1.992, 0.131075
2023/06/26 09:02:41.552, True, 1.991, 0.132677
2023/06/26 09:02:42.048, True, 1.682, 0.132906
2023/06/26 09:02:42.552, True, 1.992, 0.131304
2023/06/26 09:02:43.056, True, 1.658, 0.131456
2023/06/26 09:02:43.560, True, 1.987, 0.131228
2023/06/26 09:02:44.056, True, 1.685, 0.129854
2023/06/26 09:02:44.560, True, 1.990, 0.133898
2023/06/26 09:02:45.064, True, 1.660, 0.130617
2023/06/26 09:02:45.568, True, 1.987, 0.129397
2023/06/26 09:02:46.064, True, 1.685, 0.131762
2023/06/26 09:02:46.568, True, 1.658, 0.133898
2023/06/26 09:02:47.064, True, 2.022, 0.131075
2023/06/26 09:02:47.568, True, 1.659, 0.132906
2023/06/26 09:02:48.072, True, 1.988, 0.132372
2023/06/26 09:02:48.576, True, 1.658, 0.131991
2023/06/26 09:02:49.072, True, 1.685, 0.132296
2023/06/26 09:02:49.576, True, 1.993, 0.134890
2023/06/26 09:02:50.079, True, 1.657, 0.130770
2023/06/26 09:02:50.576, True, 2.021, 0.133211
2023/06/26 09:02:51.080, True, 1.658, 0.133440
2023/06/26 09:02:51.584, True, 1.989, 0.132830
2023/06/26 09:02:52.079, True, 2.025, 0.133135
2023/06/26 09:02:52.584, True, 1.655, 0.132372
2023/06/26 09:02:53.088, True, 1.990, 0.133288
2023/06/26 09:02:53.592, True, 1.990, 0.129778
2023/06/26 09:02:54.088, True, 1.685, 0.131456
2023/06/26 09:02:54.592, True, 1.990, 0.131762
2023/06/26 09:02:55.096, True, 1.658, 0.131838
2023/06/26 09:02:55.600, True, 1.990, 0.131838
2023/06/26 09:02:56.096, True, 1.685, 0.131228
2023/06/26 09:02:56.599, True, 1.990, 0.132143
2023/06/26 09:02:57.104, True, 1.659, 0.132982
2023/06/26 09:02:57.600, True, 2.020, 0.132219
2023/06/26 09:02:58.104, True, 1.990, 0.131380
2023/06/26 09:02:58.607, True, 1.990, 0.131762
2023/06/26 09:02:59.103, True, 1.685, 0.132906
2023/06/26 09:02:59.608, True, 1.990, 0.130159
2023/06/26 09:03:00.112, True, 1.990, 0.129168
2023/06/26 09:03:00.608, True, 2.022, 0.130159
2023/06/26 09:03:01.112, True, 1.990, 0.134356
2023/06/26 09:03:01.616, True, 1.658, 0.130617
2023/06/26 09:03:02.112, True, 1.684, 0.129320
2023/06/26 09:03:02.616, True, 1.990, 0.131380
2023/06/26 09:03:03.119, True, 1.658, 0.128634
2023/06/26 09:03:03.616, True, 2.022, 0.131380
2023/06/26 09:03:04.120, True, 1.658, 0.130846
2023/06/26 09:03:04.624, True, 1.658, 0.129549
2023/06/26 09:03:05.120, True, 2.021, 0.129931
2023/06/26 09:03:05.623, True, 1.658, 0.128786
2023/06/26 09:03:06.128, True, 1.658, 0.131456
2023/06/26 09:03:06.624, True, 2.022, 0.131228
2023/06/26 09:03:07.128, True, 1.658, 0.130388
2023/06/26 09:03:07.623, True, 2.021, 0.132830
2023/06/26 09:03:08.127, True, 1.658, 0.131304
2023/06/26 09:03:08.631, True, 1.658, 0.131380
2023/06/26 09:03:09.135, True, 1.658, 0.129702
2023/06/26 09:03:09.631, True, 2.022, 0.130388
2023/06/26 09:03:10.135, True, 1.990, 0.131075
2023/06/26 09:03:10.640, True, 1.658, 0.131228
2023/06/26 09:03:11.136, True, 1.685, 0.132067
2023/06/26 09:03:11.640, True, 1.990, 0.130999
2023/06/26 09:03:12.143, True, 1.990, 0.130541
2023/06/26 09:03:12.639, True, 1.687, 0.131228
2023/06/26 09:03:13.144, True, 1.987, 0.129473
2023/06/26 09:03:13.640, True, 1.685, 0.132601
2023/06/26 09:03:14.144, True, 1.990, 0.131762
2023/06/26 09:03:14.647, True, 1.658, 0.130694
2023/06/26 09:03:15.144, True, 2.022, 0.129473
2023/06/26 09:03:15.648, True, 1.658, 0.130617
2023/06/26 09:03:16.151, True, 1.989, 0.130388
2023/06/26 09:03:16.647, True, 1.687, 0.131456
2023/06/26 09:03:17.152, True, 1.656, 0.132296
2023/06/26 09:03:17.656, True, 1.990, 0.130999
2023/06/26 09:03:18.152, True, 1.684, 0.132677
2023/06/26 09:03:18.655, True, 1.992, 0.130465
2023/06/26 09:03:19.160, True, 1.656, 0.131456
2023/06/26 09:03:19.656, True, 1.686, 0.131304
2023/06/26 09:03:20.160, True, 1.989, 0.130312
2023/06/26 09:03:20.663, True, 1.658, 0.131991
2023/06/26 09:03:21.160, True, 1.685, 0.130846
2023/06/26 09:03:21.664, True, 1.989, 0.129320
2023/06/26 09:03:22.168, True, 1.658, 0.130465
2023/06/26 09:03:22.672, True, 1.992, 0.129244
2023/06/26 09:03:23.168, True, 1.682, 0.131456
2023/06/26 09:03:23.672, True, 1.991, 0.129397
2023/06/26 09:03:24.176, True, 1.657, 0.131533
2023/06/26 09:03:24.672, True, 2.023, 0.129854
2023/06/26 09:03:25.176, True, 1.656, 0.131762
2023/06/26 09:03:25.680, True, 1.990, 0.130617
2023/06/26 09:03:26.176, True, 1.687, 0.130312
2023/06/26 09:03:26.680, True, 1.988, 0.131609
2023/06/26 09:03:27.184, True, 1.989, 0.129015
2023/06/26 09:03:27.680, True, 2.021, 0.129854
2023/06/26 09:03:28.184, True, 1.658, 0.129473
2023/06/26 09:03:28.688, True, 1.989, 0.130846
2023/06/26 09:03:29.184, True, 2.022, 0.128557
2023/06/26 09:03:29.688, True, 1.658, 0.129015
2023/06/26 09:03:30.184, True, 2.025, 0.127794
2023/06/26 09:03:30.688, True, 1.986, 0.130999
2023/06/26 09:03:31.192, True, 1.658, 0.130846
2023/06/26 09:03:31.696, True, 1.990, 0.129473
2023/06/26 09:03:32.192, True, 1.685, 0.130007
2023/06/26 09:03:32.696, True, 1.990, 0.129549
2023/06/26 09:03:33.200, True, 1.993, 0.129397
2023/06/26 09:03:33.696, True, 1.682, 0.130846
2023/06/26 09:03:34.200, True, 1.990, 0.130465
2023/06/26 09:03:34.704, True, 1.990, 0.129625
2023/06/26 09:03:35.200, True, 1.685, 0.129091
2023/06/26 09:03:35.703, True, 1.658, 0.131075
2023/06/26 09:03:36.207, True, 1.990, 0.130465
2023/06/26 09:03:36.704, True, 1.685, 0.131456
2023/06/26 09:03:37.208, True, 1.991, 0.129397
2023/06/26 09:03:37.712, True, 1.658, 0.129473
2023/06/26 09:03:38.208, True, 2.021, 0.130312
2023/06/26 09:03:38.712, True, 1.658, 0.131151
2023/06/26 09:03:39.208, True, 1.685, 0.129778
2023/06/26 09:03:39.712, True, 1.990, 0.130007
2023/06/26 09:03:40.216, True, 1.990, 0.129702
2023/06/26 09:03:40.712, True, 1.685, 0.129015
2023/06/26 09:03:41.216, True, 1.990, 0.130541
2023/06/26 09:03:41.720, True, 1.990, 0.131228
2023/06/26 09:03:42.223, True, 1.659, 0.130312
2023/06/26 09:03:42.719, True, 2.020, 0.130388
2023/06/26 09:03:43.224, True, 1.658, 0.128328
2023/06/26 09:03:43.728, True, 1.990, 0.127337
2023/06/26 09:03:44.224, True, 1.684, 0.129168
2023/06/26 09:03:44.728, True, 1.658, 0.130236
2023/06/26 09:03:45.224, True, 2.022, 0.130770
2023/06/26 09:03:45.728, True, 1.990, 0.130388
2023/06/26 09:03:46.232, True, 1.658, 0.130465
2023/06/26 09:03:46.728, True, 1.685, 0.130465
2023/06/26 09:03:47.232, True, 1.989, 0.128023
2023/06/26 09:03:47.736, True, 1.658, 0.129549
2023/06/26 09:03:48.232, True, 2.022, 0.131685
2023/06/26 09:03:48.735, True, 1.658, 0.127947
2023/06/26 09:03:49.240, True, 1.990, 0.131380
2023/06/26 09:03:49.736, True, 1.687, 0.130846
2023/06/26 09:03:50.240, True, 1.987, 0.129854
2023/06/26 09:03:50.744, True, 1.658, 0.130312
2023/06/26 09:03:51.240, True, 1.684, 0.131228
2023/06/26 09:03:51.744, True, 1.990, 0.128405
2023/06/26 09:03:52.248, True, 1.993, 0.132067
2023/06/26 09:03:52.744, True, 1.682, 0.130846
2023/06/26 09:03:53.248, True, 1.990, 0.129778
2023/06/26 09:03:53.752, True, 1.658, 0.127413
2023/06/26 09:03:54.248, True, 2.022, 0.131075
2023/06/26 09:03:54.752, True, 1.658, 0.131151
2023/06/26 09:03:55.248, True, 2.021, 0.131380
2023/06/26 09:03:55.752, True, 1.658, 0.129244
2023/06/26 09:03:56.256, True, 1.990, 0.129549
2023/06/26 09:03:56.752, True, 1.687, 0.131228
2023/06/26 09:03:57.256, True, 1.987, 0.130846
2023/06/26 09:03:57.760, True, 1.990, 0.129168
2023/06/26 09:03:58.256, True, 1.685, 0.129854
2023/06/26 09:03:58.759, True, 1.990, 0.127718
2023/06/26 09:03:59.264, True, 1.658, 0.131991
2023/06/26 09:03:59.760, True, 2.022, 0.128023
2023/06/26 09:04:00.264, True, 1.658, 0.129625
2023/06/26 09:04:00.768, True, 1.990, 0.126879
2023/06/26 09:04:01.264, True, 1.684, 0.130236
2023/06/26 09:04:01.768, True, 1.659, 0.130312
2023/06/26 09:04:02.272, True, 1.989, 0.128557
2023/06/26 09:04:02.768, True, 1.685, 0.129625
2023/06/26 09:04:03.272, True, 1.990, 0.128862
2023/06/26 09:04:03.768, True, 1.685, 0.128710
2023/06/26 09:04:04.272, True, 1.990, 0.128939
2023/06/26 09:04:04.776, True, 1.658, 0.128557
2023/06/26 09:04:05.272, True, 1.685, 0.131151
2023/06/26 09:04:05.775, True, 1.989, 0.131685
2023/06/26 09:04:06.280, True, 1.658, 0.128405
2023/06/26 09:04:06.776, True, 2.022, 0.130312
2023/06/26 09:04:07.280, True, 1.989, 0.128481
2023/06/26 09:04:07.776, True, 1.685, 0.129473
2023/06/26 09:04:08.279, True, 1.658, 0.132067
2023/06/26 09:04:08.784, True, 1.989, 0.129931
2023/06/26 09:04:09.280, True, 1.685, 0.130083
2023/06/26 09:04:09.784, True, 1.658, 0.130083
2023/06/26 09:04:10.279, True, 1.685, 0.130312
2023/06/26 09:04:10.784, True, 1.990, 0.127337
2023/06/26 09:04:11.287, True, 1.990, 0.128710